Location: Joplin
(37.0842°N, 94.5131°W)
Time: 00:00:23
(UTC-05:00)

Envisat - Pass Details

Date: 04 October 2021
Orbit: 764 x 766 km, 98.2° (Epoch: 27 October)

Event Time Altitude Azimuth Distance (km) Brightness Sun altitude
Rises 06:44:26 0° 8° (N) 3,236 6.3 -7.2°
Reaches altitude 10° 06:46:47 10° 4° (N) 2,306 5.5 -6.7°
Maximum altitude 06:51:46 59° 286° (WNW) 879 3.1 -5.7°
Drops below altitude 10° 06:56:43 10° 208° (SSW) 2,291 5.2 -4.7°
Sets 06:59:02 0° 204° (SSW) 3,213 6.0 -4.3°
